| Date | Time | Temp. (oF) | Dew Point (oF) | Rel. Hum. (%) | Press. (in.) | Wind Dir. (deg.) | Wind Speed (mph) | Hourly Rainfall (i n.) |
|
|---|---|---|---|---|---|---|---|---|---|
| 1 | 11/24 | 24:00 | 58 | 55 | 93 | 30.36 | 70 | 2 | 0.00 |
| 2 | 11/23 | 23:00 | 58 | 55 | 92 | 30.37 | 130 | 0 | 0.00 |
| 3 | 11/23 | 22:00 | 59 | 56 | 90 | 30.38 | 130 | 0 | 0.00 |
| 4 | 11/23 | 21:00 | 58 | 55 | 90 | 30.39 | 130 | 0 | 0.01 |
| 5 | 11/23 | 20:00 | 58 | 55 | 92 | 30.40 | 130 | 0 | 0.00 |
| 6 | 11/23 | 19:00 | 58 | 55 | 91 | 30.40 | 130 | 0 | 0.01 |
| 7 | 11/23 | 18:00 | 58 | 54 | 89 | 30.39 | 130 | 1 | 0.00 |
| 8 | 11/23 | 17:00 | 60 | 55 | 84 | 30.39 | 130 | 0 | 0.00 |
| 9 | 11/23 | 16:00 | 60 | 54 | 83 | 30.39 | 130 | 0 | 0.00 |
| 10 | 11/23 | 15:00 | 61 | 55 | 82 | 30.39 | 130 | 1 | 0.00 |
| 11 | 11/23 | 14:00 | 63 | 56 | 79 | 30.41 | 130 | 0 | 0.00 |
| 12 | 11/23 | 13:00 | 62 | 55 | 79 | 30.43 | 130 | 0 | 0.00 |
| 13 | 11/23 | 12:00 | 61 | 55 | 83 | 30.40 | 130 | 1 | 0.00 |
| 14 | 11/23 | 11:00 | 61 | 55 | 81 | 30.42 | 130 | 0 | 0.00 |
| 15 | 11/23 | 10:00 | 59 | 55 | 87 | 30.42 | 130 | 0 | 0.01 |
| 16 | 11/23 | 09:00 | 58 | 54 | 89 | 30.41 | 130 | 0 | 0.00 |
| 17 | 11/23 | 08:00 | 56 | 54 | 94 | 30.41 | 130 | 0 | 0.00 |
| 18 | 11/23 | 07:00 | 56 | 54 | 94 | 30.40 | 130 | 0 | 0.00 |
| 19 | 11/23 | 06:00 | 56 | 54 | 94 | 30.42 | 130 | 0 | 0.00 |
| 20 | 11/23 | 05:00 | 56 | 54 | 93 | 30.42 | 130 | 0 | 0.00 |
| 21 | 11/23 | 04:00 | 56 | 54 | 93 | 30.43 | 130 | 0 | 0.00 |
| 22 | 11/23 | 03:00 | 56 | 54 | 93 | 30.43 | 130 | 0 | 0.01 |
| 23 | 11/23 | 02:00 | 56 | 54 | 93 | 30.43 | 130 | 0 | 0.00 |
| 24 | 11/23 | 01:00 | 56 | 54 | 93 | 30.42 | 130 | 0 | 0.00 |